Regional Weather Roundup
Issued by NWS

Home | Current Version | Previous Version | Graphics & Text | Print | Product List | Glossary On
Versions: 1 2 3 4 5 6 7 8 9 10 11 12 13 14 15 16 17 18 19 20 21 22 23 24 25 26 27 28 29 30 31 32 33 34 35 36 37 38 39 40 41 42 43 44 45 46 47 48 49 50
052
ASUS43 KDMX 101803
RWRIA

WEATHER ROUNDUP FOR IOWA
NATIONAL WEATHER SERVICE DES MOINES IA
1200 PM CST WED FEB 10 2016

NOTE: "FAIR" INDICATES FEW OR NO CLOUDS BELOW 12,000 FEET WITH NO
SIGNIFICANT WEATHER AND/OR OBSTRUCTIONS TO VISIBILITY.

* - THESE STATIONS ARE NOT NWS STATIONS...THUS NOT UNDER NWS
QUALITY CONTROL.  THEY ALSO DO NOT REPORT WEATHER SUCH
AS PRECIPITATION OR FOG.

IAZ001>003-012>014-020>022-031>034-043>046-101900-
   NORTHWEST IOWA

CITY           SKY/WX    TMP DP  RH WIND       PRES   REMARKS
CARROLL *      CLOUDY    16  12  86 E17       30.00F WCI   0
CHEROKEE *     CLOUDY    18  14  86 E13       30.01S WCI   4
DENISON *      CLOUDY    23  19  86 E10       29.95F WCI  12
LE MARS *      CLOUDY    21  19  93 E13G21    29.97S WCI   9
ORANGE CITY *  CLOUDY    18  16  93 E9G16     29.97S WCI   6
SHELDON *      CLOUDY    16  12  86 E18       29.96F WCI  -1
SIOUX CITY     CLOUDY    29  20  69 E16       29.95F WCI  17
6HR MIN TEMP:  22; 6HR MAX TEMP:  29; 6HR PCP: TRACE;

SPENCER        LGT SNOW  13   7  77 E14       30.02F WCI  -2
6HR MIN TEMP:  11; 6HR MAX TEMP:  15; 6HR PCP: TRACE;

STORM LAKE *   PTSUNNY   14  12  92 E18       29.98F FOG     WCI  -3
$$

IAZ055>058-069>071-079>083-090>094-101900-
   SOUTHWEST IOWA

CITY           SKY/WX    TMP DP  RH WIND       PRES   REMARKS
ATLANTIC *     CLOUDY    28  19  69 SE8G15    29.99S WCI  20
AUDUBON *      CLOUDY    23  18  80 E10       29.98F WCI  12
CLARINDA *     CLOUDY    34  19  55 S13       29.99F WCI  25
COUNCIL BLFS * CLOUDY    32  21  64 SE10      29.94F WCI  24
CRESTON *      CLOUDY    25  19  80 SE10      30.00F WCI  15
HARLAN  *      CLOUDY    28  21  74 SE12      30.00F WCI  18
LAMONI         CLOUDY    22  18  85 SE6       30.01F WCI  14
6HR MIN TEMP:  19; 6HR MAX TEMP:  22; 6HR PCP:  0.04;

RED OAK *      CLOUDY    34  19  55 S12       29.97F WCI  25
SHENANDOAH *   CLOUDY    36  19  51 S12       29.97F WCI  27
$$

IAZ047>049-059>061-072>074-084-101900-
   CENTRAL IOWA

CITY           SKY/WX    TMP DP  RH WIND       PRES   REMARKS
AMES           LGT SNOW  14   9  80 E7        30.08F WCI   4
6HR MIN TEMP:  12; 6HR MAX TEMP:  14; 6HR PCP: TRACE;

ANKENY *       FLURRIES  16  12  86 E7        30.08F WCI   6
BOONE *        LGT SNOW  14   9  79 E10       30.04F WCI   1
CHARITON *     FLURRIES  19  16  86 E8        30.05F WCI   9
DES MOINES     FLURRIES  17  11  77 E8        30.07F WCI   7
6HR MIN TEMP:  16; 6HR MAX TEMP:  18; 6HR PCP:  0.06;

GRINNELL*      LGT SNOW  14  10  85 E3        30.08F
KNOXVILLE *    LGT SNOW  18  10  73 E6        30.07F WCI   9
MARSHALLTOWN   LGT SNOW  12   7  80 E3        30.08F
6HR MIN TEMP:   9; 6HR MAX TEMP:  12; 6HR PCP: TRACE;

NEWTON *       LGT SNOW  14  10  85 E6        30.07F WCI   5
PELLA *        LGT SNOW  18  12  77 SE3       30.10F
$$

IAZ004>006-015-016-023>025-035-036-101900-
   NORTH CENTRAL IOWA

CITY           SKY/WX    TMP DP  RH WIND       PRES   REMARKS
ALGONA *       LGT SNOW  12   7  79 E8        30.05F WCI   1
CLARION *      CLOUDY    12   5  73 E6        30.06F WCI   3
ESTHERVILLE    LGT SNOW  10   6  84 E9        30.03F FOG     WCI  -3
6HR MIN TEMP:   8; 6HR MAX TEMP:  10; 6HR PCP: TRACE;

FORT DODGE *   CLOUDY    12   7  79 E13       30.06F WCI  -3
MASON CITY     CLOUDY     9   2  73 CALM      30.08F
6HR MIN TEMP:   4; 6HR MAX TEMP:  10; 6HR PCP: TRACE;

FOREST CITY *  LGT SNOW  10   3  72 CALM      30.07F
WEBSTER CITY * CLOUDY    12   9  85 E9        30.05F HAZE    WCI   0
IOWA FALLS *   LGT SNOW  13   7  75 E5        30.08F WCI   6
$$

IAZ007>011-017>019-026>030-037>042-050>054-066-101900-
   NORTHEAST IOWA

CITY           SKY/WX    TMP DP  RH WIND       PRES   REMARKS
CEDAR RAPIDS   CLOUDY    12   2  64 NW6       30.09F WCI   3
6HR MIN TEMP:   6; 6HR MAX TEMP:  12;

CHARLES CITY * CLOUDY     9  -2  61 N5        30.09F WCI   0
CLINTON *      MOSUNNY   16   3  56 NW9       30.08F WCI   4
DECORAH *      CLOUDY     7  -4  61 NW6       30.06S WCI  -3
DUBUQUE        MOSUNNY   11   0  61 NW7       30.05F WCI   0
6HR MIN TEMP:   4; 6HR MAX TEMP:  11;

MONTICELLO *   CLOUDY    12  -2  52 N8        30.08F WCI   1
OELWEIN *      CLOUDY     9  -2  61 N7        30.08F WCI  -3
WATERLOO       CLOUDY    11   0  61 NE5       30.10F WCI   3
6HR MIN TEMP:   3; 6HR MAX TEMP:  11;

$$

IAZ064-065-067-068-078-101900-
   EAST CENTRAL IOWA

CITY           SKY/WX    TMP DP  RH WIND       PRES   REMARKS
DAVENPORT      CLOUDY    15   2  56 NW7       30.09F WCI   5
6HR MIN TEMP:   3; 6HR MAX TEMP:  16;

IOWA CITY      CLOUDY    15   2  56 W7        30.13F WCI   5
6HR MIN TEMP:   8; 6HR MAX TEMP:  15;

MT. PLEASANT * LGT SNOW  19   9  67 W3        30.12F
MUSCATINE *    CLOUDY    18   3  53 W8        30.13F WCI   7
QUAD CITIES    MOSUNNY   16   2  54 NW7       30.10F WCI   6
6HR MIN TEMP:   8; 6HR MAX TEMP:  16;

$$

IAZ062-063-075>077-085>089-095>099-101900-
   SOUTHEAST IOWA

CITY           SKY/WX    TMP DP  RH WIND       PRES   REMARKS
BURLINGTON     CLOUDY    15   5  64 W8        30.11F WCI   4
6HR MIN TEMP:   9; 6HR MAX TEMP:  16;

FAIRFIELD *    LGT SNOW  16   9  73 CALM      30.11F
FORT MADISON * LGT SNOW  16   9  73 W5        30.12F WCI   9
KEOKUK *       LGT SNOW  18  10  73 VRB5      30.13F WCI  11
OSKALOOSA *    LGT SNOW  16  10  79 CALM      30.10F
OTTUMWA        LGT SNOW  16  11  80 CALM      30.09F
6HR MIN TEMP:  13; 6HR MAX TEMP:  16; 6HR PCP: TRACE;

WASHINGTON *   LGT SNOW  14   9  79 W8        30.13F WCI   3
$$

ABBREVIATIONS USED IN REMARKS
   TC - TEMPERATURES IN CELSIUS
  WCI - WIND CHILL INDEX
   HX - HEAT INDEX
  VSB - VISIBILITY
$$





USA.gov is the U.S. government's official web portal to all federal, state and local government web resources and services.